Location: West Cummington
(42.4920°N, 72.9680°W)
Time: 02:20:00
(UTC-05:00)

ATLAS 2AS CENTAUR R/B - Visible Passes

Search period start: 02 March 2015 00:00
Search period end: 12 March 2015 01:00
Orbit: 915 x 1297 km, 63.7° (Epoch: 27 February)

Date Brightness Start Highest point End Pass type
(mag) Time Alt. Az. Time Alt. Az. Time Alt. Az.
02 Mar 4.9 18:33:26 10° WNW 18:38:54 20° NNW 18:44:26 10° NNE visible
02 Mar 5.0 20:28:40 10° NNW 20:33:19 16° N 20:36:29 13° NNE visible
02 Mar 4.8 22:20:17 10° NNW 22:23:55 23° N 22:23:55 23° N visible
03 Mar 5.5 00:11:09 10° NW 00:11:21 11° NW 00:11:21 11° NW visible
03 Mar 5.1 19:43:07 10° NW 19:47:34 15° N 19:52:04 10° NE visible
03 Mar 4.7 21:35:32 10° NNW 21:40:36 23° NNE 21:40:36 23° NNE visible
03 Mar 5.2 23:26:21 10° NNW 23:28:02 18° NNW 23:28:02 18° NNW visible
04 Mar 5.0 18:57:09 10° NW 19:01:48 16° N 19:06:28 10° NNE visible
04 Mar 4.7 20:50:41 10° NNW 20:56:13 20° NNE 20:57:18 19° NNE visible
04 Mar 4.8 22:41:37 10° NNW 22:44:43 24° NNW 22:44:43 24° NNW visible
05 Mar 5.0 18:10:58 10° WNW 18:16:06 18° NNW 18:21:15 10° NNE visible
05 Mar 4.9 20:05:38 10° NNW 20:10:33 17° NNE 20:13:59 13° NE visible
05 Mar 4.5 21:56:55 10° NNW 22:01:25 29° N 22:01:25 29° N visible
05 Mar 5.3 23:47:53 10° NW 23:48:51 14° NW 23:48:51 14° NW visible
06 Mar 5.0 19:20:17 10° NNW 19:24:49 16° N 19:29:25 10° NE visible
06 Mar 4.4 21:12:11 10° NNW 21:18:07 27° NNE 21:18:07 27° NNE visible
06 Mar 4.9 23:03:01 10° NW 23:05:34 23° NNW 23:05:34 23° NNW visible
07 Mar 5.0 18:34:33 10° NW 18:39:02 16° N 18:43:35 10° NNE visible
07 Mar 4.5 20:27:24 10° NNW 20:33:22 22° NNE 20:34:50 21° NE visible
07 Mar 4.4 22:18:15 10° NNW 22:22:17 31° NNW 22:22:17 31° NNW visible
08 Mar 4.7 20:42:29 10° NNW 20:47:46 19° NNE 20:51:34 14° NE visible
08 Mar 4.1 22:33:32 10° NNW 22:39:01 36° N 22:39:01 36° N visible
09 Mar 5.1 00:24:40 10° NW 00:26:27 18° NW 00:26:27 18° NW visible
09 Mar 4.9 19:57:20 10° NNW 20:02:03 16° N 20:06:53 10° NE visible
09 Mar 4.0 21:48:49 10° NNW 21:55:46 32° NNE 21:55:46 32° NNE visible
09 Mar 4.6 23:39:43 10° NW 23:43:13 29° NW 23:43:13 29° NW visible
10 Mar 4.9 19:11:50 10° NNW 19:16:18 16° N 19:20:50 10° NE visible
10 Mar 4.3 21:04:05 10° NNW 21:10:29 25° NNE 21:12:33 23° NE visible
10 Mar 4.0 22:54:54 10° NNW 22:59:59 42° NNW 22:59:59 42° NNW visible
11 Mar 5.4 00:46:53 10° NW 00:47:25 12° WNW 00:47:25 12° WNW visible
11 Mar 4.6 20:19:15 10° NNW 20:24:56 21° NNE 20:29:20 14° ENE visible
11 Mar 3.6 22:10:09 10° NNW 22:16:47 48° NNE 22:16:47 48° NNE visible
12 Mar 4.9 00:01:32 10° NW 00:04:14 22° WNW 00:04:14 22° WNW visible
